Regional Weather Roundup
Issued by NWS

Home | Current Version | Previous Version | Graphics & Text | Print | Product List | Glossary On
Versions: 1 2 3 4 5 6 7 8 9 10 11 12 13 14 15 16 17 18 19 20 21 22 23 24 25 26 27 28 29 30 31 32 33 34 35 36 37 38 39 40 41 42 43 44 45 46 47 48 49 50
000
ASUS43 KDMX 030507
RWRIA

WEATHER ROUNDUP FOR IOWA
NATIONAL WEATHER SERVICE DES MOINES IA
1200 AM CDT FRI JUL 03 2015

NOTE: "FAIR" INDICATES FEW OR NO CLOUDS BELOW 12,000 FEET WITH NO
SIGNIFICANT WEATHER AND/OR OBSTRUCTIONS TO VISIBILITY.

* - THESE STATIONS ARE NOT NWS STATIONS...THUS NOT UNDER NWS
QUALITY CONTROL.  THEY ALSO DO NOT REPORT WEATHER SUCH
AS PRECIPITATION OR FOG.

IAZ001>003-012>014-020>022-031>034-043>046-030600-
   NORTHWEST IOWA

CITY           SKY/WX    TMP DP  RH WIND       PRES   REMARKS
CARROLL *      CLOUDY    61  61 100 CALM      30.00R
CHEROKEE *     MOCLDY    59  59 100 CALM      30.00S
DENISON *      CLOUDY    59  57  94 CALM      29.98S
LE MARS *        N/A     59  57  94 CALM      30.01S
ORANGE CITY *  CLEAR     61  57  88 CALM      30.00S
SHELDON *      CLOUDY    54  54 100 CALM      30.00S
SIOUX CITY     MOCLDY    63  59  87 CALM      30.00R
SPENCER        PTCLDY    53  49  86 CALM      30.00F
STORM LAKE *   CLEAR     59  57  94 CALM      30.01S
$$

IAZ055>058-069>071-079>083-090>094-030600-
   SOUTHWEST IOWA

CITY           SKY/WX    TMP DP  RH WIND       PRES   REMARKS
ATLANTIC *     CLOUDY    61  57  88 N3        30.01R
AUDUBON *      CLEAR     57  54  88 CALM      30.01S
CLARINDA *     PTCLDY    63  57  82 CALM      30.00S
COUNCIL BLFS * MOCLDY    61  57  88 E6        30.00R
CRESTON *      PTCLDY    61  55  82 NE5       30.00R
HARLAN  *      PTCLDY    57  57 100 CALM      30.03S
LAMONI         MOCLDY    63  56  78 CALM      29.98S
RED OAK *      CLOUDY    63  57  82 CALM      29.99R
SHENANDOAH *   CLOUDY    66  59  77 E9        29.98S
$$

IAZ047>049-059>061-072>074-084-030600-
   CENTRAL IOWA

CITY           SKY/WX    TMP DP  RH WIND       PRES   REMARKS
AMES           PTCLDY    56  54  93 CALM      29.99R
ANKENY *       CLEAR     57  57 100 CALM      29.99R
CHARITON *     CLOUDY    63  57  82 E5        29.98S
DES MOINES     MOCLDY    64  55  72 CALM      29.99R
GRINNELL*      MOCLDY    61  55  82 CALM      30.00R
KNOXVILLE *    PTCLDY    63  55  77 E6        29.97S
MARSHALLTOWN   MOCLDY    61  57  87 NE3       29.98S
PELLA *        PTCLDY    60  58  93 CALM      30.00R
PERRY *          N/A     63  57  82 CALM      30.00R
$$

IAZ004>006-015-016-023>025-035-036-030600-
   NORTH CENTRAL IOWA

CITY           SKY/WX    TMP DP  RH WIND       PRES   REMARKS
ALGONA *       CLEAR     57  54  88 CALM      30.01S
CLARION *      CLEAR     55  52  88 CALM      30.00S
ESTHERVILLE    CLEAR     52  50  93 SW5       30.00S
FORT DODGE *   PTCLDY    55  52  88 CALM      30.01R
MASON CITY     PTCLDY    56  54  93 CALM      30.01S
FOREST CITY *  CLEAR     54  54 100 CALM      30.00S
IOWA FALLS *     N/A     55  54  94 CALM      30.01R
$$

IAZ007>011-017>019-026>030-037>042-050>054-066-030600-
   NORTHEAST IOWA

CITY           SKY/WX    TMP DP  RH WIND       PRES   REMARKS
CEDAR RAPIDS   CLOUDY    63  54  72 NE3       29.98R
CHARLES CITY * PTCLDY    59  59 100 E3        30.01R
CLINTON *      CLOUDY    59  54  82 NE5       30.01R
DECORAH *        N/A    N/A N/A N/A MISG        N/A
DUBUQUE        CLOUDY    59  51  75 NE6       30.00S
MONTICELLO *   CLEAR     59 N/A N/A CALM      29.98S
OELWEIN *      CLEAR     59  55  88 E5        30.00S
WATERLOO       PTCLDY    59  55  87 NE3       29.98S
$$

IAZ064-065-067-068-078-030600-
   EAST CENTRAL IOWA

CITY           SKY/WX    TMP DP  RH WIND       PRES   REMARKS
DAVENPORT      CLOUDY    61  56  83 NE6       29.98R
IOWA CITY      CLOUDY    64  55  72 NE5       29.99R
MT. PLEASANT * CLOUDY    64  59  82 N3        29.98R
MUSCATINE *    CLEAR     64  57  77 CALM      29.97R
QUAD CITIES    CLOUDY    62  58  86 E6        29.97R
$$

IAZ062-063-075>077-085>089-095>099-030600-
   SOUTHEAST IOWA

CITY           SKY/WX    TMP DP  RH WIND       PRES   REMARKS
BURLINGTON     CLOUDY    65  59  81 NE7       29.96R
FAIRFIELD *    CLOUDY    63  59  88 CALM      29.99R
FORT MADISON * CLEAR     63  61  94 CALM      29.98R
KEOKUK *       CLOUDY    64  61  88 NE5       29.96R
OSKALOOSA *      N/A     61  59  94 CALM      29.99S
CENTERVILLE *  MOCLDY    63  57  82 NE5       30.00R
OTTUMWA        MOCLDY    63  58  83 NE3       29.97R
WASHINGTON *   PTCLDY    63  59  88 CALM      30.00R
$$

ABBREVIATIONS USED IN REMARKS
   TC - TEMPERATURES IN CELSIUS
  WCI - WIND CHILL INDEX
   HX - HEAT INDEX
  VSB - VISIBILITY
$$



USA.gov is the U.S. government's official web portal to all federal, state and local government web resources and services.